Flag for Spain Weather past 2 weeks in Córdoba, Spain

Now
50 °F

Clear.


Feels Like: 49 °F
Forecast: 46 / 76 °F
Wind: 3 mph from Southwest

Location: Moron De La Frontera Airport

Current Time: Mar 1, 2015 at 1:10:29 AM

Latest Report: Mar 1, 2015 at 12:00 AM


Visibility: 10 mi

Pressure: 30.30 "Hg

Humidity: 88%

Dew point: 46 °F

Location of CórdobaLocation

Historic Weather in Córdoba — Graph

°F

Córdoba temperature yesterday

Maximum temperature yesterday: 66 °F (at 3:00 PM)
Minimum temperature yesterday: 43 °F (at 8:00 AM)
Average temperature yesterday: 55 °F

Past Weeks' High & Low Weather Summary

 TemperatureHumidityPressure
High70 °F (Feb 26, 5:00 PM)100% (Feb 14, 9:00 AM)30.51 "Hg (Feb 14, 9:00 AM)
Low34 °F (Feb 20, 7:00 AM)32% (Feb 20, 4:00 PM)29.86 "Hg (Feb 21, 3:00 PM)
Average51 °F76%30.21 "Hg
* Reported Midnight between Feb 13 and Feb 14 — Midnight between Feb 28 and Mar 1, Córdoba, Weather by CustomWeather, © 2015

Note: Actual official high and low records may vary slightly from our data, if they occured in-between our weather recording intervals... More about our weather records

Advertising

Córdoba weather history for previous 24 hours

 ConditionsComfort  
Time TempWeatherWind HumidityBarometerVisibility
12:00 AM
Sun, Mar 1
50 °FClear.3 mph88%30.30 "Hg10 mi
11:00 PM
Sat, Feb 28
52 °FClear.5 mph82%30.30 "Hg10 mi
10:00 PM52 °FClear.3 mph82%30.30 "Hg10 mi
9:00 PM54 °FClear.1 mph72%30.30 "Hg10 mi
8:00 PM57 °FClear.1 mph63%30.27 "Hg10 mi
7:00 PM63 °FSunny.3 mph52%30.24 "Hg10 mi
6:00 PM64 °FPassing clouds.6 mph49%30.24 "HgN/A
5:00 PM66 °FPassing clouds.8 mph46%30.24 "HgN/A
4:00 PM66 °FPassing clouds.9 mph46%30.24 "HgN/A
3:00 PM66 °FPassing clouds.8 mph46%30.27 "HgN/A
2:00 PM64 °FPassing clouds.7 mph49%30.27 "HgN/A
1:00 PM63 °FPassing clouds.5 mph52%30.30 "HgN/A
12:00 PM59 °FSunny.1 mph59%30.30 "Hg10 mi
11:00 AM55 °FSunny.No wind72%30.33 "Hg10 mi
10:00 AM52 °FSunny.1 mph82%30.30 "Hg10 mi
9:00 AM46 °FPassing clouds.9 mph93%30.30 "HgN/A
8:00 AM43 °FPassing clouds.9 mph93%30.27 "HgN/A
7:00 AM45 °FClear.9 mph93%30.24 "Hg10 mi
6:00 AM46 °FClear.9 mph93%30.24 "Hg10 mi
5:00 AM46 °FClear.9 mph93%30.24 "Hg10 mi
4:00 AM48 °FClear.7 mph94%30.24 "Hg10 mi
3:00 AM50 °FClear.9 mph94%30.27 "Hg10 mi
2:00 AM52 °FClear.9 mph94%30.27 "Hg10 mi
1:00 AM52 °FClear.9 mph94%30.27 "Hg10 mi
Weather by CustomWeather, © 2015

See weather overviewHow to use our weather pages